Weather History for North Island, CA

Change the Weather History Date:

Thursday, November 21, 2013

  Actual Average Record
Temperature  
Mean Temperature 65 °F -  
Max Temperature 68 °F 64 °F 82 °F (2002)
Min Temperature 61 °F 50 °F 46 °F (2004)
Growing Degree Days 15 (Base 50)    
Moisture  
Dew Point 57 °F    
Average Humidity 77    
Maximum Humidity 84    
Minimum Humidity 68    
Precipitation  
Precipitation 0.62 in - - ()
Sea Level Pressure  
Sea Level Pressure 29.89 in    
Wind  
Wind Speed 9 mph (SW)    
Max Wind Speed 17 mph    
Max Gust Speed -    
Visibility 7 miles    
Events Rain    
Averages and records for this station are not official NWS values.
T = Trace of Precipitation, MM = Missing Value Source: NWS Daily Summary

Daily Weather History Graph

Daily Weather History Graph

Search for Another Location

Airport:

Trip Planner

Search our weather history database for the weather conditions in past years. The results will help you decide how hot, cold, wet, or windy it might be!

Date:

Astronomy

Nov. 21, 2013 Rise Set
Actual Time 6:24 AM PST 4:44 PM PST
Civil Twilight 5:58 AM PST 5:11 PM PST
Nautical Twilight 5:28 AM PST 5:41 PM PST
Astronomical Twilight 4:58 AM PST 6:10 PM PST
Moon 8:23 PM PST (11/21) 9:35 AM PST (11/21)
Length of Visible Light 11h 13m
Length of Day
10h 20m
Waning Gibbous, 84% of the Moon is Illuminated
Nov 21
Waning Gibbous
Nov 25
Last Quarter
Dec 2
New
Dec 9
First Quarter
Dec 17
Full

Hourly Weather History & Observations

Time (PST) Temp. Dew Point Humidity Pressure Visibility Wind Dir Wind Speed Gust Speed Precip Events Conditions
12:40 AM 64.9 °F 57.0 °F 75% 29.89 in 9.0 mi SE 11.5 mph - 0.00 in Rain Light Rain
12:52 AM 64.0 °F 57.0 °F 78% 29.90 in 5.0 mi SSE 11.5 mph - 0.00 in Rain Light Rain
1:52 AM 63.0 °F 57.9 °F 84% 29.88 in 5.0 mi SE 13.8 mph - 0.00 in Rain Light Rain
2:30 AM 63.0 °F 57.9 °F 84% 29.88 in 7.0 mi SSE 11.5 mph - 0.00 in Rain Light Rain
2:52 AM 63.0 °F 57.9 °F 84% 29.88 in 5.0 mi SSE 15.0 mph - 0.00 in Rain Light Rain
3:52 AM 64.0 °F 57.9 °F 80% 29.88 in 5.0 mi South 17.3 mph - 0.00 in Rain Light Rain
4:52 AM 64.0 °F 57.9 °F 80% 29.88 in 6.0 mi South 16.1 mph - 0.00 in Rain Light Rain
5:52 AM 64.0 °F 57.9 °F 80% 29.89 in 6.0 mi SW 9.2 mph - 0.02 in Rain Light Rain
6:17 AM 64.0 °F 57.9 °F 80% 29.90 in 10.0 mi SW 8.1 mph - 0.00 in Rain Light Rain
6:28 AM 64.0 °F 57.9 °F 80% 29.89 in 10.0 mi SW 6.9 mph - 0.00 in   Mostly Cloudy
6:52 AM 64.9 °F 59.0 °F 81% 29.91 in 10.0 mi SW 8.1 mph - 0.00 in   Mostly Cloudy
7:52 AM 66.0 °F 59.0 °F 78% 29.92 in 10.0 mi WSW 6.9 mph - N/A   Mostly Cloudy
8:21 AM 66.0 °F 59.0 °F 78% 29.91 in 6.0 mi WSW 9.2 mph - N/A   Haze
8:33 AM 64.9 °F 59.0 °F 81% 29.91 in 4.0 mi WSW 9.2 mph - 0.00 in Rain Light Rain
8:52 AM 64.9 °F 59.0 °F 81% 29.92 in 9.0 mi WSW 9.2 mph - 0.00 in   Overcast
9:52 AM 66.0 °F 57.9 °F 75% 29.92 in 10.0 mi WSW 9.2 mph - N/A   Mostly Cloudy
10:52 AM 68.0 °F 57.0 °F 68% 29.92 in 10.0 mi WSW 10.4 mph - N/A   Mostly Cloudy
11:52 AM 68.0 °F 57.0 °F 68% 29.89 in 10.0 mi SSW 9.2 mph - N/A   Mostly Cloudy
12:52 PM 66.0 °F 57.0 °F 73% 29.88 in 10.0 mi WSW 10.4 mph - N/A   Overcast
1:52 PM 66.0 °F 57.0 °F 73% 29.88 in 9.0 mi WSW 10.4 mph - N/A   Overcast
2:37 PM 64.9 °F 55.9 °F 73% 29.88 in 1.8 mi Variable 3.5 mph - 0.03 in Rain Heavy Rain
2:47 PM 64.4 °F 57.2 °F 77% 29.88 in 3.0 mi SSW 3.5 mph - 0.03 in Rain Light Rain
2:52 PM 64.9 °F 57.0 °F 75% 29.88 in 10.0 mi SSW 5.8 mph - 0.03 in   Mostly Cloudy
3:52 PM 66.0 °F 55.0 °F 68% 29.88 in 10.0 mi WSW 6.9 mph - N/A   Mostly Cloudy
4:52 PM 64.9 °F 54.0 °F 68% 29.87 in 10.0 mi SW 4.6 mph - N/A   Mostly Cloudy
5:52 PM 64.0 °F 55.0 °F 73% 29.88 in 10.0 mi SSW 4.6 mph - N/A   Mostly Cloudy
6:52 PM 64.0 °F 54.0 °F 70% 29.88 in 10.0 mi SW 3.5 mph - N/A   Mostly Cloudy
7:52 PM 64.9 °F 55.0 °F 70% 29.88 in 10.0 mi Calm Calm - N/A   Mostly Cloudy
8:38 PM 63.0 °F 55.0 °F 75% 29.88 in 4.0 mi West 5.8 mph - 0.03 in Rain Rain
8:52 PM 63.0 °F 55.9 °F 78% 29.88 in 3.0 mi WNW 5.8 mph - 0.08 in Rain Rain
9:12 PM 62.1 °F 55.9 °F 80% 29.88 in 2.0 mi Variable 3.5 mph - 0.19 in Rain Heavy Rain
9:39 PM 62.1 °F 55.9 °F 80% 29.88 in 3.0 mi Calm Calm - 0.39 in Rain Rain
9:52 PM 62.1 °F 55.9 °F 80% 29.88 in 3.0 mi North 3.5 mph - 0.49 in Rain Rain
10:12 PM 62.1 °F 55.0 °F 78% 29.87 in 9.0 mi Calm Calm - 0.00 in   Mostly Cloudy
10:52 PM 63.0 °F 55.9 °F 78% 29.88 in 10.0 mi Calm Calm - 0.00 in   Mostly Cloudy
11:52 PM 61.0 °F 55.0 °F 81% 29.86 in 8.0 mi Calm Calm - N/A   Mostly Cloudy